Regional Weather Roundup
Issued by NWS

Home | Current Version | Previous Version | Graphics & Text | Print | Product List | Glossary On
Versions: 1 2 3 4 5 6 7 8 9 10 11 12 13 14 15 16 17 18 19 20 21 22 23 24 25 26 27 28 29 30 31 32 33 34 35 36 37 38 39 40 41 42 43 44 45 46 47 48 49 50
000
ASUS43 KIND 200609
RWRIN

WEATHER ROUNDUP FOR INDIANA
NATIONAL WEATHER SERVICE INDIANAPOLIS IN
200 AM EDT WED AUG 20 2014

NOTE: "FAIR" INDICATES FEW OR NO CLOUDS BELOW 12,000 FEET WITH NO
SIGNIFICANT WEATHER AND/OR OBSTRUCTIONS TO VISIBILITY.

* - STATION DOES NOT REPORT WEATHER SUCH AS PRECIPITATION OR FOG.

+ - STATION NOT QUALITY CONTROLLED BY THE NATIONAL WEATHER SERVICE.
    USE DATA WITH CAUTION...ESPECIALLY DEWPOINT AND RELATIVE
    HUMIDITY OBSERVATIONS.

INZ001>003-010>013-019-020-200700-
NORTHWEST INDIANA

CITY           SKY/WX    TMP DP  RH WIND       PRES   REMARKS
GARY /AIRPORT/ FAIR      72  68  88 SW5       29.79S
KNOX *+        FAIR      66  64  91 SW5       29.78F
LA PORTE +     FAIR      66  66 100 W8        29.79F
6HR MIN TEMP:  64; 6HR MAX TEMP:  76;

MICHIGAN CITY+ FAIR      66  66 100 SW3       29.78F
MONTICELLO +   FAIR      65  64  97 S6        29.80S
RENSSELAER +   FAIR      64  64 100 SW6       29.81S
VALPARAISO     FAIR      67  65  93 SW6       29.80S
6HR MIN TEMP:  67; 6HR MAX TEMP:  78;


$$

LMZ046-743>745-200700-
SOUTHERN LAKE MICHIGAN

STATION/POSITION TIME  TEMP WIND        PRES
                       AIR  DIR/SP/G
                 (UTC) (F)  (DEG/KT/KT) (MB)
BURNS HARBOR     0500   73  190/  7/  8   N/A
MICHIGAN CITY    0600   72  200/ 11/ 12   N/A

$$

INZ004-005-014>016-021>024-200700-
NORTH CENTRAL INDIANA

CITY           SKY/WX    TMP DP  RH WIND       PRES   REMARKS
GOSHEN         FAIR      68  65  90 CALM      29.78F
6HR MIN TEMP:  68; 6HR MAX TEMP:  76;

LOGANSPORT +   FAIR      64  61  88 SW7       29.82S
PERU/GRISSOM   FAIR      66  66 100 SW10      29.80F
6HR MIN TEMP:  66; 6HR MAX TEMP:  75; 6HR PCP:  0.21;

ROCHESTER +    FAIR      68  64  88 SW5       29.80S
SOUTH BEND     FAIR      70  65  84 SW8       29.78S
6HR MIN TEMP:  70; 6HR MAX TEMP:  77;

WARSAW +       FAIR      68  64  88 SW5       29.79S

$$

INZ006>009-017-018-025>027-200700-
NORTHEAST INDIANA

CITY           SKY/WX    TMP DP  RH WIND       PRES   REMARKS
ANGOLA *+      CLEAR     66  57  72 CALM      29.78F
AUBURN +       FAIR      68  64  88 S3        29.80F
FORT WAYNE     CLOUDY    68  66  93 S5        29.81R
6HR MIN TEMP:  68; 6HR MAX TEMP:  71; 6HR PCP:  0.03;

HUNTINGTON +   FAIR      67  66  94 SW3       29.80S
6HR MIN TEMP:  67; 6HR MAX TEMP:  73; 6HR PCP:  0.05;


$$

INZ028-029-035-036-043>045-051>053-200700-
WEST CENTRAL INDIANA

CITY           SKY/WX    TMP DP  RH WIND       PRES   REMARKS
GREENCASTLE +  FAIR      64  63  94 CALM      29.85S
LAFAYETTE      FAIR      65  65 100 CALM      29.82R
6HR MIN TEMP:  64; 6HR MAX TEMP:  75; 6HR PCP: TRACE;

TERRE HAUTE    FAIR      69  67  93 CALM      29.85R
6HR MIN TEMP:  68; 6HR MAX TEMP:  82; 6HR PCP:  0.04;


$$

INZ030>032-037>040-046>048-054>057-064-065-200700-
CENTRAL INDIANA

CITY           SKY/WX    TMP DP  RH WIND       PRES   REMARKS
CP ATTERBURY + FAIR      64  63  94 CALM      29.86R
FRANKFORT +    FAIR     N/A N/A N/A SW7       29.84
INDIANAPOLIS   CLOUDY    67  63  87 SW7       29.84R
6HR MIN TEMP:  65; 6HR MAX TEMP:  80; 6HR PCP:  0.50;

-EAGLE CREEK   FAIR      66  63  90 S5        29.84R
6HR MIN TEMP:  64; 6HR MAX TEMP:  80; 6HR PCP:  0.47;

KOKOMO *+      FAIR      66  63  88 SW7       29.82S
MARION +       FAIR      65  63  91 SW6       29.82S
MT COMFORT *+  FAIR      66 N/A N/A S3        29.86R
SHELBYVILLE    FAIR      69  50  51 S8        29.86R
6HR MIN TEMP:  68; 6HR MAX TEMP:  80; 6HR PCP:  0.30;

ZIONSVILLE +   FAIR      66  62  87 SW3       29.85R
6HR MIN TEMP:  66; 6HR MAX TEMP:  73; 6HR PCP:  0.21;


$$

INZ033-034-041-042-049-050-058-059-200700-
EAST CENTRAL INDIANA

CITY           SKY/WX    TMP DP  RH WIND       PRES   REMARKS
MUNCIE         FAIR      70  64  81 SW7       29.83R
6HR MIN TEMP:  70; 6HR MAX TEMP:  75; 6HR PCP:  0.01;


$$

INZ060-061-067>069-081>083-085>088-200700-
SOUTHWEST INDIANA

CITY           SKY/WX    TMP DP  RH WIND       PRES   REMARKS
EVANSVILLE     FAIR      75  68  78 SW3       29.87R
6HR MIN TEMP:  74; 6HR MAX TEMP:  84;

WASHINGTON +   FAIR      75  75 100 SW5       29.85S
6HR MIN TEMP:  74; 6HR MAX TEMP:  82;


$$

INZ062-063-066-070>080-084-089>092-200700-
SOUTH CENTRAL AND SOUTHEAST INDIANA

CITY           SKY/WX    TMP DP  RH WIND       PRES   REMARKS
BLOOMINGTON    FAIR      68  64  87 SW8       29.86S
6HR MIN TEMP:  69; 6HR MAX TEMP:  79; 6HR PCP:  0.79;


$$




USA.gov is the U.S. government's official web portal to all federal, state and local government web resources and services.